Location: Rye Bay
(50.9167°N, 0.8000°E)
Time: 04:47:32
(UTC+00:00)

Daily predictions for brighter satellites

Satellite Brightness Start Highest point End
(mag) Time Altitude Azimuth Time Altitude Azimuth Time Altitude Azimuth
CENTAUR R/B 4.1 03:11:58 32° NE 03:11:58 32° NE 03:15:45 10° NE
Cosmos 2297 Rocket 4.4 03:42:00 16° NNE 03:42:29 17° NNE 03:46:02 10° ENE
NOSS 3-2 (C) 4.4 03:51:07 42° NE 03:51:07 42° NE 03:55:30 10° NE
Cosmos 2369 Rocket 3.6 03:51:56 32° NE 03:51:56 32° NE 03:55:00 10° NE
Cosmos 1943 Rocket 4.0 03:59:15 22° NNE 03:59:15 22° NNE 04:01:11 10° NNE
CZ-2C R/B 4.2 03:54:16 10° ESE 03:58:59 32° ENE 04:00:26 28° NNE
Cosmos 2344 3.6 04:05:25 64° N 04:05:25 64° N 04:12:46 10° NE
Cosmos 2279 Rocket 4.5 04:06:26 46° NNE 04:07:57 57° ENE 04:14:02 10° SSE
USA 238 DEB 3.9 04:17:53 57° N 04:17:53 57° N 04:23:45 10° NE
USA 238 3.9 04:17:58 58° N 04:17:58 58° N 04:23:50 10° NE
SJ 16-02 3.9 04:15:56 10° SE 04:19:01 19° E 04:22:07 10° NE
Cosmos 2227 Rocket 4.3 04:17:14 17° N 04:19:12 19° NE 04:23:13 10° E
USA 215 3.3 04:13:40 10° E 04:20:06 64° NNE 04:20:33 62° N
Lacrosse 4 Rocket 4.1 04:23:22 14° NNE 04:23:22 14° NNE 04:25:44 10° ENE
Cosmos 2098 Rocket 4.3 04:28:03 47° NNE 04:28:03 47° NNE 04:32:24 10° NNE
ATLAS 5 CENTAUR R/B 3.0 04:41:25 28° SE 04:42:07 29° ESE 04:45:52 10° ENE
Meteor 2-13 Rocket 4.4 04:44:26 64° NNW 04:44:26 64° NNW 04:49:44 10° N
SKYMED 2 4.0 04:44:41 10° SSE 04:48:34 62° ESE 04:48:34 62° ESE
Cosmos 2278 Rocket 4.3 04:51:17 13° N 04:51:17 13° N 04:52:38 10° N
Cosmos 1354 Rocket 4.0 04:53:50 39° SSW 04:55:52 80° ESE 05:01:13 10° NNE
H-2A R/B 4.3 04:53:26 10° ESE 04:56:55 24° ENE 05:00:28 10° N
CENTAUR R/B 3.1 04:59:09 42° NW 04:59:47 43° NNW 05:07:04 10° NE
Cosmos 2180 Rocket 4.3 05:02:07 16° NNW 05:07:04 75° W 05:13:11 10° S
CZ-4C R/B 4.2 05:04:43 10° SSE 05:06:53 36° ESE 05:06:53 36° ESE
SL-19 R/B 4.2 05:03:02 10° S 05:08:32 62° WSW 05:09:39 51° WNW
FALCON 9 DEB 4.4 05:17:27 32° E 05:17:27 32° E 05:19:14 10° E
Cosmos 1538 Rocket 3.9 05:16:45 32° NNW 05:19:14 84° ENE 05:24:26 10° SSE
Cosmos 1656 Rocket 3.8 05:20:45 47° WNW 05:20:59 47° NW 05:26:17 10° NNE
Alouette 2 Rocket 3.6 05:20:03 36° N 05:21:17 61° ENE 05:24:52 10° SSE
Meteor 1-27 Rocket 3.6 05:16:41 15° NNW 05:21:28 84° W 05:27:16 10° S
MOS 1-B Rocket 4.0 05:16:13 10° S 05:21:57 48° W 05:23:07 42° WNW
ADEOS 4.3 05:21:06 10° NNE 05:26:16 56° ESE 05:31:23 10° S
Cosmos 2297 Rocket 2.8 05:23:49 18° NNW 05:27:55 53° NE 05:33:25 10° SE
NOSS 3-2 (A) 4.4 05:27:33 29° NW 05:29:09 33° NNW 05:35:31 10° NE
Cosmos 1607 3.8 05:26:35 31° NW 05:29:45 86° SW 05:35:56 10° SE
Meteor 2-15 Rocket 4.3 05:24:37 10° NNW 05:30:41 71° W 05:36:42 10° S
Cosmos 773 Rocket 4.4 05:32:06 39° W 05:32:14 39° WSW 05:37:00 10° S
FALCON 9 DEB 3.2 05:32:33 61° N 05:32:33 61° N 05:35:53 10° E
ATLAS 3B R/B 3.0 05:26:22 10° SSW 05:32:50 66° SE 05:39:40 10° NE
Cosmos 2369 Rocket 2.8 05:33:45 33° NW 05:33:50 33° NW 05:38:56 10° NNE
H-2A R/B 4.1 05:30:29 10° N 05:39:24 - SSW 05:32:11 25° N
Cosmos 1503 Rocket 4.2 05:32:42 37° WSW 05:34:15 48° WNW 05:39:28 10° NNE
Landsat 5 3.6 05:30:41 10° S 05:35:07 60° WSW 05:36:39 37° NW
Cosmos 1340 Rocket 2.8 05:32:12 10° S 05:36:11 79° E 05:40:14 10° NNE
COSMO-SKYMED 1 2.8 05:32:59 10° S 05:37:07 43° W 05:37:10 43° W
Cosmos 1777 Rocket 3.9 05:31:57 10° SSW 05:37:11 84° WNW 05:42:29 10° NNE
Cosmos 1680 Rocket 4.4 05:33:46 12° NNW 05:38:31 47° ENE 05:43:36 10° SE
CZ-4B R/B 3.7 05:36:31 10° ESE 05:39:07 22° ENE 05:41:42 10° NNE
CZ-2C R/B 2.8 05:33:55 10° S 05:39:08 47° W 05:41:55 25° NW
Cosmos 158 Rocket 3.9 05:36:53 28° NNW 05:39:39 70° WSW 05:44:53 10° SSE
Cosmos 1943 Rocket 3.6 05:40:47 19° NNW 05:40:47 19° NNW 05:44:24 10° NNE
SJ-12 4.0 05:36:20 10° N 05:40:23 52° WNW 05:44:25 10° SSW
NOSS 3-2 (C) 4.2 05:38:34 30° NW 05:40:31 36° NNW 05:46:59 10° NE
CZ-4B R/B 3.9 05:39:16 10° NNE 05:42:42 41° E 05:46:09 10° S
Cosmos 1408 Rocket 3.5 05:38:37 10° SSW 05:42:49 53° WNW 05:47:04 10° N
FALCON 9 DEB 2.6 05:44:12 77° NNE 05:44:12 77° NNE 05:47:05 10° ESE
Cosmos 2263 Rocket 4.2 05:40:31 10° N 05:44:28 19° NE 05:48:26 10° E
FAST Rocket 4.4 05:45:29 10° S 05:48:16 82° E 05:52:20 10° N
Meteor 1-31 Rocket 2.8 05:45:11 10° N 05:49:01 55° WNW 05:52:51 10° SSW
Lacrosse 5 4.4 05:45:50 10° S 05:49:43 22° SE 05:53:36 10° ENE
USA 32 4.0 05:44:33 10° N 05:49:51 88° W 05:55:06 10° S
Envisat 3.1 05:45:50 10° N 05:50:45 51° WNW 05:55:39 10° SW
Cosmos 923 Rocket 4.2 05:49:23 13° NNW 05:54:13 77° ENE 05:59:35 10° SSE
Cosmos 1743 Rocket 3.4 05:50:42 10° SSW 05:55:03 73° W 05:59:25 10° N
OPS 6432 4.3 05:55:13 48° W 05:55:42 55° SW 05:59:00 10° SSE
Cosmos 1174 3.1 05:55:46 46° W 05:56:22 57° NW 05:59:39 10° NNE
CZ-2C R/B 3.2 05:51:39 10° NNE 05:56:35 73° ESE 06:01:45 10° S
SJ 16-02 1.3 05:52:53 10° SW 05:57:11 56° WNW 06:01:31 10° NNE
Cosmos 1515 Rocket 4.4 06:00:08 28° W 06:00:09 28° W 06:03:50 10° SSW
Lacrosse 4 Rocket 2.4 05:59:39 15° NNW 06:03:08 45° NE 06:07:28 10° ESE
USA 215 3.3 05:56:39 10° SE 06:03:09 67° SW 06:07:54 20° WNW
SL-4 R/B 3.5 06:00:55 10° SSW 06:04:05 31° SSE 06:07:27 10° E
Cosmos 2227 Rocket 2.5 05:59:03 12° NNW 06:04:21 68° ENE 06:09:58 10° SE
Nadezhda 4 Rocket 4.0 05:59:39 10° SSW 06:05:43 56° WNW 06:11:55 10° N
Cosmos 1939 Rocket 3.4 06:03:09 10° NNE 06:07:03 60° E 06:10:52 10° S
IRAS Rocket 4.3 06:04:03 10° S 06:09:28 59° WSW 06:14:54 10° NNW
Cosmos 2228 Rocket 3.2 06:05:22 10° NNW 06:09:48 57° W 06:14:14 10° S
Okean 1 3.2 06:07:10 10° NNW 06:11:08 76° W 06:15:03 10° S
Meteor 2-4 Rocket 4.2 06:06:51 10° N 06:12:47 67° ENE 06:18:34 10° SSE
Meteor PRIRODA 3.5 06:13:11 10° N 06:16:48 68° WNW 06:20:25 10° SSW
Meteor 1-18 Rocket 4.3 06:13:41 10° NNW 06:19:33 85° W 06:25:16 10° S
Cosmos 1602 3.7 06:15:55 10° SSW 06:19:40 57° WNW 06:23:27 10° N
Sich 1 2.9 06:16:01 10° SSW 06:20:17 79° W 06:24:35 10° N
Cosmos 1428 Rocket 4.4 06:14:31 10° SSW 06:20:39 79° W 06:26:48 10° N
Cosmos 2344 4.4 06:15:27 17° WNW 06:20:40 37° N 06:29:03 10° ENE
NOAA 11 4.2 06:15:21 10° N 06:20:46 62° WNW 06:26:11 10° SSW
COSMOS 2487 3.9 06:20:59 18° W 06:21:00 18° W 06:23:23 10° SSW
Cosmos 1500 Rocket 4.0 06:17:34 10° SW 06:21:46 39° WNW 06:26:00 10° N
DMSP B5D2-2 4.3 06:17:17 10° S 06:22:17 47° W 06:27:20 10° NNW
Cosmos 2112 Rocket 4.1 06:16:59 10° NNW 06:22:21 85° ENE 06:27:38 10° SSE
BREEZE M DEB (TANK) 2.7 06:21:00 19° W 06:22:41 39° SSW 06:24:39 10° SE
Cosmos 990 Rocket 4.3 06:19:01 10° SSW 06:24:14 71° ESE 06:29:28 10° NNE
Meteor 1-20 Rocket 4.2 06:20:40 10° SSW 06:26:14 61° WNW 06:31:57 10° N
Meteor 2-21 4.4 06:20:09 10° S 06:26:20 84° WNW 06:32:30 10° N
ATLAS 5 CENTAUR R/B 1.8 06:22:59 12° WSW 06:26:28 45° NW 06:30:56 10° NE
Cosmos 1092 Rocket 4.0 06:20:27 10° SSW 06:26:42 65° WNW 06:33:01 10° N
Cosmos 1500 3.1 06:23:19 10° SSW 06:27:06 72° W 06:30:54 10° N
PSLV R/B 4.0 06:27:31 10° SSE 06:31:37 80° ENE 06:35:45 10° NNW
Cosmos 1707 Rocket 3.6 06:27:58 10° NNW 06:32:23 66° W 06:36:48 10° S
H-2A R/B 2.3 06:28:23 10° S 06:32:36 49° W 06:36:55 10° NNW
Geosat FO 4.4 06:30:39 10° SSE 06:33:56 65° WSW 06:37:01 12° NW
Cosmos 1805 Rocket 3.8 06:30:12 10° SSW 06:34:25 46° WNW 06:38:39 10° N
Cosmos 1697 Rocket 4.2 06:30:39 10° S 06:35:52 41° ESE 06:41:07 10° NE
Meteor 1-19 Rocket 4.4 06:32:16 10° NNW 06:37:36 48° W 06:42:47 10° SSW
PSLV R/B 4.1 06:39:24 10° NNE 06:43:23 73° ESE 06:47:25 10° S
Cosmos 2219 3.2 06:37:56 10° NNW 06:43:35 68° WSW 06:49:13 10° SSE
Meteor 2-14 Rocket 4.5 06:38:59 10° SSW 06:45:05 63° WNW 06:51:12 10° N
Cosmos 1862 Rocket 3.5 06:41:39 10° NNW 06:46:00 79° W 06:50:20 10° S
Cosmos 724 4.5 06:41:13 10° NW 06:46:54 56° WSW 06:52:32 10° SSE
FALCON 9 DEB 4.0 06:45:44 12° W 06:47:55 28° SSW 06:50:26 10° SSE
FALCON 9 DEB 3.9 06:47:24 12° W 06:49:41 30° SSW 06:52:15 10° SSE
CZ-4B R/B 4.5 06:45:40 10° NNE 06:50:46 45° E 06:55:52 10° S
FALCON 9 DEB 3.6 06:48:56 12° W 06:51:24 39° SSW 06:54:07 10° SE
CENTAUR R/B 3.9 06:46:20 11° WNW 06:52:23 32° N 06:59:34 10° ENE
AQUARIUS 4.1 06:49:46 10° N 06:54:16 70° WNW 06:58:43 10° SSW
Cosmos 1666 2.6 06:52:01 10° SSW 06:55:45 61° WNW 06:59:29 10° N
NOAA 12 4.4 06:56:45 10° N 07:01:45 44° WNW 07:06:41 10° SW
Okean O Rocket 2.8 06:57:37 10° NNE 07:01:54 47° E 07:06:09 10° S
CZ-4 R/B 3.9 07:00:30 10° NE 07:03:43 24° E 07:06:54 10° SSE
ADEOS 4.4 07:01:07 10° N 07:05:29 27° WNW 07:09:49 10° WSW
Meteor 1-5 Rocket 4.3 07:01:16 10° SSW 07:07:04 79° WNW 07:13:03 10° N
Cosmos 2082 3.8 07:02:50 10° NNW 07:08:32 84° WSW 07:14:12 10° SSE
PAYLOAD B 4.4 07:03:04 10° NNE 07:08:40 84° ESE 07:14:11 10° SSW
FALCON 9 DEB 3.4 07:05:57 10° WNW 07:09:18 58° SSW 07:12:39 10° SE
Cosmos 2026 Rocket 4.5 07:05:13 10° SW 07:11:05 39° WNW 07:16:54 10° N
Cosmos 2297 Rocket 3.1 07:06:45 10° NW 07:11:44 32° WSW 07:16:40 10° SSW
